Zurück zum Katalog

YAOGAN-43 O1H

AktivMilitärVLEO
NORAD 60465·PAYLOAD·🇨🇳 China

Gestartet Aug 16, 2024 von Xichang Satellite Launch Center

Loading…

Nächste Überflüge (nächste 24 Stunden)

TLE

AktuellSource: Space-Track

Epoche: Sep 14, 2026, 13:24 UTC

1 60465U 24148H   26257.55879891  .00011117  00000-0  38338-3 0  9993
2 60465  34.9873 310.4285 0007328 284.3350  75.6553 15.29167462115871

Verfolge YAOGAN-43 O1H in Echtzeit mit AllMySat

Download on the App Store